Weather History for Cheboygan, MI

Change the Weather History Date:

Tuesday, December 18, 2012

  Actual Average (KPLN) Record (KPLN)
Temperature  
Mean Temperature 34 °F -  
Max Temperature 38 °F 28 °F 45 °F (2002)
Min Temperature 30 °F 14 °F -16 °F (1964)
Degree Days  
Heating Degree Days 31    
Moisture  
Dew Point 31 °F    
Average Humidity 92    
Maximum Humidity 100    
Minimum Humidity 67    
Precipitation  
Precipitation 0.00 in - - ()
Sea Level Pressure  
Sea Level Pressure 29.70 in    
Wind  
Wind Speed 2 mph (West)    
Max Wind Speed 8 mph    
Max Gust Speed -    
Visibility 10 miles    
Events      
Averages and records for this station are not official NWS values.
T = Trace of Precipitation, MM = Missing Value Source: NWS Daily Summary

Daily Weather History Graph

Daily Weather History Graph

Search for Another Location

Airport:

Trip Planner

Search our weather history database for the weather conditions in past years. The results will help you decide how hot, cold, wet, or windy it might be!

Date:

Astronomy

Dec. 18, 2012 Rise Set
Actual Time 8:14 AM EST 4:55 PM EST
Civil Twilight 7:39 AM EST 5:30 PM EST
Nautical Twilight 7:02 AM EST 6:07 PM EST
Astronomical Twilight 6:25 AM EST 6:44 PM EST
Moon 11:37 AM EST (12/18) 11:38 PM EST (12/18)
Length of Visible Light 9h 50m
Length of Day
8h 41m
Waxing Crescent, 34% of the Moon is Illuminated
Dec 18
Waxing Crescent
Dec 20
First Quarter
Dec 28
Full
Jan 4
Last Quarter
Jan 11
New

Hourly Weather History & Observations

Time (EST) Temp. Windchill Dew Point Humidity Pressure Visibility Wind Dir Wind Speed Gust Speed Precip Events Conditions
12:15 AM 30.9 °F 27.5 °F 30.9 °F 100% 29.65 in 10.0 mi SW 3.5 mph - N/A   Overcast
12:35 AM 31.1 °F 26.4 °F 31.1 °F 100% 29.65 in 10.0 mi SW 4.6 mph - N/A   Overcast
12:55 AM 31.1 °F 27.7 °F 31.1 °F 100% 29.65 in 10.0 mi SW 3.5 mph - N/A   Overcast
1:15 AM 31.3 °F 27.9 °F 31.3 °F 100% 29.66 in 10.0 mi WSW 3.5 mph - N/A   Overcast
1:35 AM 31.8 °F - 31.6 °F 99% 29.66 in 10.0 mi Calm Calm - N/A   Overcast
1:55 AM 32.0 °F - 31.6 °F 99% 29.65 in 10.0 mi Calm Calm - N/A   Overcast
2:15 AM 31.8 °F 28.5 °F 31.3 °F 98% 29.65 in 10.0 mi WNW 3.5 mph - N/A   Overcast
2:35 AM 31.5 °F - 31.1 °F 99% 29.65 in 10.0 mi Calm Calm - N/A   Overcast
2:55 AM 32.0 °F 28.7 °F 31.6 °F 99% 29.66 in 10.0 mi West 3.5 mph - N/A   Overcast
3:16 AM 32.0 °F 28.7 °F 31.6 °F 99% 29.66 in 10.0 mi WSW 3.5 mph - N/A   Overcast
3:35 AM 31.8 °F 28.5 °F 31.6 °F 99% 29.66 in 10.0 mi SW 3.5 mph - N/A   Overcast
3:55 AM 31.5 °F - 31.1 °F 99% 29.66 in 10.0 mi Calm Calm - N/A   Overcast
4:16 AM 31.5 °F 28.1 °F 31.1 °F 99% 29.66 in 10.0 mi SW 3.5 mph - N/A   Overcast
4:35 AM 31.5 °F - 31.1 °F 99% 29.66 in 10.0 mi Calm Calm - N/A   Overcast
4:55 AM 31.5 °F - 31.1 °F 99% 29.66 in 10.0 mi Calm Calm - N/A   Overcast
5:16 AM 31.5 °F - 31.1 °F 99% 29.67 in 10.0 mi Calm Calm - N/A   Overcast
5:35 AM 31.5 °F - 31.1 °F 99% 29.67 in 10.0 mi Calm Calm - N/A   Overcast
6:15 AM 32.0 °F 28.7 °F 31.8 °F 99% 29.67 in 10.0 mi West 3.5 mph - N/A   Overcast
6:55 AM 32.2 °F 27.7 °F 32.0 °F 99% 29.68 in 10.0 mi West 4.6 mph - N/A   Overcast
7:35 AM 32.0 °F - 31.3 °F 97% 29.68 in 10.0 mi Calm Calm - N/A   Overcast
7:55 AM 32.0 °F 28.7 °F 31.6 °F 99% 29.68 in 10.0 mi West 3.5 mph - N/A   Overcast
8:15 AM 32.0 °F 27.5 °F 31.5 °F 98% 29.69 in 10.0 mi West 4.6 mph - N/A   Overcast
8:35 AM 32.0 °F 28.7 °F 31.6 °F 99% 29.68 in 10.0 mi West 3.5 mph - N/A   Overcast
8:56 AM 32.4 °F 29.1 °F 31.8 °F 98% 29.69 in 10.0 mi West 3.5 mph - N/A   Overcast
9:15 AM 32.7 °F 29.6 °F 32.0 °F 97% 29.69 in 10.0 mi West 3.5 mph - N/A   Overcast
9:36 AM 33.1 °F 30.0 °F 32.0 °F 96% 29.70 in 10.0 mi West 3.5 mph - N/A   Overcast
9:55 AM 34.0 °F - 32.4 °F 94% 29.70 in 10.0 mi Calm Calm - N/A   Overcast
10:15 AM 34.7 °F - 32.4 °F 91% 29.70 in 10.0 mi Calm Calm - N/A   Overcast
10:36 AM 34.9 °F - 32.2 °F 90% 29.71 in 10.0 mi Calm Calm - N/A   Overcast
10:55 AM 34.5 °F - 32.0 °F 90% 29.71 in 10.0 mi Calm Calm - N/A   Overcast
11:15 AM 34.9 °F 32.0 °F 32.2 °F 90% 29.71 in 10.0 mi West 3.5 mph - N/A   Overcast
11:36 AM 35.1 °F - 32.0 °F 89% 29.70 in 10.0 mi Calm Calm - N/A   Overcast
12:15 PM 37.2 °F 34.7 °F 31.6 °F 80% 29.70 in 10.0 mi West 3.5 mph - N/A   Overcast
12:35 PM 37.8 °F 35.3 °F 30.9 °F 76% 29.70 in 10.0 mi SW 3.5 mph - N/A   Overcast
1:15 PM 37.9 °F 35.5 °F 31.1 °F 76% 29.69 in 10.0 mi West 3.5 mph - N/A   Overcast
1:35 PM 38.3 °F - 29.7 °F 71% 29.68 in 10.0 mi Calm Calm - N/A   Overcast
1:55 PM 38.1 °F - 28.0 °F 67% 29.68 in 10.0 mi Calm Calm - N/A   Overcast
2:16 PM 37.0 °F 33.3 °F 32.5 °F 84% 29.68 in 10.0 mi NNW 4.6 mph - N/A   Overcast
2:35 PM 37.4 °F 33.8 °F 31.8 °F 80% 29.68 in 10.0 mi NW 4.6 mph - N/A   Overcast
2:55 PM 37.4 °F 34.9 °F 31.8 °F 80% 29.68 in 10.0 mi WNW 3.5 mph - N/A   Overcast
3:16 PM 37.2 °F 34.7 °F 30.2 °F 76% 29.69 in 10.0 mi WNW 3.5 mph - N/A   Overcast
3:35 PM 36.9 °F 33.1 °F 29.7 °F 75% 29.69 in 10.0 mi West 4.6 mph - N/A   Overcast
3:55 PM 36.7 °F 30.5 °F 28.9 °F 74% 29.69 in 10.0 mi West 8.1 mph - N/A   Overcast
4:16 PM 35.1 °F 31.0 °F 31.1 °F 85% 29.69 in 10.0 mi WNW 4.6 mph - N/A   Overcast
4:35 PM 34.0 °F 29.8 °F 30.9 °F 89% 29.69 in 10.0 mi NW 4.6 mph - N/A   Overcast
4:55 PM 33.3 °F - 29.3 °F 85% 29.69 in 10.0 mi Calm Calm - N/A   Overcast
5:15 PM 32.9 °F - 29.3 °F 87% 29.70 in 10.0 mi Calm Calm - N/A   Overcast
5:35 PM 32.9 °F 29.8 °F 29.5 °F 87% 29.70 in 10.0 mi West 3.5 mph - N/A   Overcast
5:55 PM 32.2 °F - 29.8 °F 91% 29.70 in 10.0 mi Calm Calm - N/A   Overcast
6:15 PM 32.0 °F - 29.7 °F 91% 29.70 in 10.0 mi Calm Calm - N/A   Overcast
6:35 PM 32.0 °F - 30.2 °F 93% 29.71 in 10.0 mi Calm Calm - N/A   Overcast
6:56 PM 31.6 °F - 30.0 °F 94% 29.71 in 10.0 mi Calm Calm - N/A   Overcast
7:15 PM 31.8 °F - 30.2 °F 94% 29.72 in 10.0 mi Calm Calm - N/A   Overcast
7:35 PM 31.1 °F - 30.0 °F 96% 29.73 in 10.0 mi Calm Calm - N/A   Overcast
7:56 PM 32.0 °F 28.7 °F 30.9 °F 96% 29.73 in 10.0 mi West 3.5 mph - N/A   Overcast
8:15 PM 32.0 °F - 30.6 °F 94% 29.74 in 10.0 mi Calm Calm - N/A   Overcast
8:35 PM 32.2 °F - 30.7 °F 94% 29.74 in 10.0 mi Calm Calm - N/A   Overcast
8:55 PM 32.2 °F - 30.9 °F 95% 29.74 in 10.0 mi Calm Calm - N/A   Overcast
9:15 PM 33.1 °F - 31.1 °F 92% 29.74 in 10.0 mi Calm Calm - N/A   Overcast
9:36 PM 32.0 °F - 30.9 °F 96% 29.74 in 10.0 mi Calm Calm - N/A   Overcast
9:55 PM 32.2 °F - 31.1 °F 96% 29.74 in 10.0 mi Calm Calm - N/A   Overcast
10:15 PM 32.2 °F 27.7 °F 31.1 °F 96% 29.75 in 10.0 mi WSW 4.6 mph - N/A   Overcast
10:36 PM 32.5 °F 29.3 °F 30.9 °F 94% 29.75 in 10.0 mi WSW 3.5 mph - N/A   Overcast
10:55 PM 32.0 °F 28.7 °F 30.6 °F 94% 29.76 in 10.0 mi SW 3.5 mph - N/A   Overcast
11:15 PM 32.0 °F - 30.9 °F 96% 29.76 in 10.0 mi Calm Calm - N/A   Overcast
11:35 PM 32.0 °F - 30.6 °F 94% 29.76 in 10.0 mi Calm Calm - N/A   Overcast
11:55 PM 31.5 °F - 30.2 °F 95% 29.76 in 10.0 mi Calm Calm - N/A   Overcast